Dewpoint
64 64 64 63 63 63 64 61 62 62 61 61 60 59 58 58 55 54 54 54 54 57 59 58 60 69 72 72 72 73 74 75 75 75 75 74 73 72 72 72 71 71 72 72 73 74 74 74 74 74 75 74 75 75 75 75 75 75 75 76 76 75 75 74 74 74 74 73 73 72 73 72 73 74
65 66 63 63 62 62 61 61 60 61 60 58 58 57 57 58 56 56 54 54 56 56 59 59 59 61 62 66 66 69 72 75 75 74 73 73 73 72 71 72 71 71 71 71 71 72 74 75 75 73 74 75 75 74 75 76 75 75 76 76 76 75 75 73 72 73 73 73 73 72 72 73 73 74
65 64 62 61 60 59 59 59 58 58 58 57 58 56 57 57 58 58 57 54 58 60 58 59 60 59 59 60 62 60 61 67 69 67 67 70 73 74 72 73 72 72 71 71 71 73 74 75 76 76 76 75 75 75 75 76 75 75 75 76 76 76 75 72 71 72 72 73 73 72 72 72 72 73
63 61 59 60 59 59 58 57 57 56 58 59 59 58 58 58 58 60 59 57 58 60 60 60 60 59 61 59 59 60 62 65 68 64 63 64 71 70 65 69 70 70 69 68 69 70 72 74 75 75 76 76 76 76 76 76 76 76 75 76 76 76 75 74 73 73 71 72 72 72 72 72 72 72
62 62 60 59 59 59 58 58 57 57 58 59 60 60 59 59 59 59 59 58 59 60 61 61 60 61 61 60 61 62 62 62 63 65 63 64 62 61 60 61 66 66 67 67 67 68 68 70 72 74 74 75 75 76 76 76 76 75 75 76 76 75 73 72 72 72 72 73 72 72 72 71 71 72
61 62 61 60 59 59 58 58 57 57 59 59 59 59 59 59 60 60 60 59 59 58 60 60 60 60 60 60 62 62 62 62 64 62 62 62 63 62 62 62 62 65 66 67 67 67 66 67 68 70 71 73 73 74 74 75 75 75 75 74 73 72 71 71 71 71 70 71 72 72 72 72 72 72
61 60 62 60 60 59 58 58 58 59 60 60 60 59 60 59 59 61 60 59 58 58 59 60 59 59 59 60 61 62 62 63 63 62 62 62 63 64 63 63 62 64 66 67 67 67 66 66 66 67 67 68 70 71 71 71 71 71 71 71 71 71 71 71 68 69 70 71 71 71 72 72 72 72
61 60 61 61 61 62 58 58 58 58 60 60 61 59 59 59 59 60 61 60 58 59 58 59 59 60 59 60 61 62 61 61 61 62 62 62 62 62 63 63 63 65 67 67 67 67 66 66 65 65 65 66 68 68 67 68 68 69 69 69 69 69 70 70 69 69 69 70 71 71 72 72 72 72
60 60 60 61 61 60 58 58 58 58 59 59 60 58 59 59 60 60 61 61 60 58 57 58 59 60 60 61 60 60 59 59 59 60 61 62 62 63 63 64 65 66 66 65 65 66 66 65 65 65 65 66 66 67 67 67 67 67 67 68 68 68 68 68 68 68 69 69 69 70 70 70 70 71
60 60 60 61 61 60 59 58 58 59 59 59 58 58 58 59 59 59 59 60 59 58 58 57 58 58 58 58 58 58 60 59 58 59 61 62 63 62 62 62 64 65 63 63 63 65 64 65 64 65 65 66 67 67 67 67 67 67 66 66 66 66 67 67 67 67 67 67 67 67 67 68 69 70
60 60 59 60 60 60 59 59 59 59 59 60 59 61 58 58 58 58 58 59 58 58 57 58 58 57 58 58 56 57 59 59 60 59 60 58 59 61 62 62 63 63 63 65 67 67 67 68 67 64 64 66 66 67 67 67 68 68 67 66 65 66 66 66 66 66 65 65 65 65 65 66 67 69
59 59 59 60 61 61 61 59 58 59 59 59 59 59 59 59 59 58 59 59 58 58 57 57 57 57 57 57 57 59 57 56 57 60 59 57 57 60 61 61 62 62 64 64 64 65 67 66 66 66 66 66 67 67 67 68 68 68 67 67 66 66 66 66 65 65 65 65 64 64 63 63 64 66
57 58 59 61 62 64 61 61 60 60 60 60 60 60 60 61 61 60 59 59 58 58 58 58 58 57 57 56 56 56 56 55 55 57 58 57 59 60 60 60 60 63 63 64 64 63 63 63 63 63 64 64 66 66 67 67 68 67 66 66 66 66 66 65 65 64 64 64 64 64 63 62 62 62
58 59 59 62 62 61 60 63 63 64 65 65 64 62 61 60 60 60 59 58 59 58 58 57 57 56 56 56 56 56 56 57 58 58 57 57 59 59 58 58 60 63 63 62 60 60 61 61 60 61 61 62 65 65 65 65 66 66 66 65 65 65 65 65 64 64 63 63 63 63 63 62 62 61
58 57 56 57 59 62 63 63 64 64 64 64 63 63 63 62 62 61 60 59 59 59 58 57 57 57 56 57 57 57 57 58 57 57 58 59 59 58 57 56 59 62 61 60 59 58 59 60 59 59 60 61 62 63 64 64 66 66 66 65 65 65 64 64 64 64 63 63 62 62 62 62 62 61
54 55 56 57 58 58 61 63 61 62 63 62 62 62 62 62 62 61 61 61 60 59 59 58 58 58 57 57 58 58 58 58 58 59 59 59 58 58 58 58 57 61 62 59 58 57 58 59 59 59 59 60 60 61 62 63 64 65 65 65 65 64 64 64 64 64 64 63 63 63 62 62 62 62
54 55 57 57 58 58 62 64 60 60 60 61 61 61 61 60 61 61 61 61 61 60 59 59 58 59 59 58 59 60 60 61 59 59 59 59 59 59 59 58 58 59 60 59 57 56 57 58 59 58 58 59 60 60 61 62 63 64 64 64 63 63 63 63 63 63 63 63 63 62 62 62 62 61
55 56 56 57 57 58 60 61 60 60 59 58 58 58 58 57 59 60 60 60 60 60 60 59 58 59 60 59 60 60 60 59 59 59 58 58 58 57 57 57 58 58 60 58 57 57 57 58 58 57 58 59 60 61 61 61 63 63 63 62 62 62 62 62 62 62 63 63 62 62 61 61 61 61
56 56 56 57 58 59 59 62 62 61 60 59 58 57 57 57 57 57 58 58 58 60 60 59 59 59 59 59 59 59 59 59 59 59 58 57 57 57 58 58 58 58 59 59 58 56 57 58 57 58 58 60 59 60 61 61 62 62 62 62 61 61 61 61 62 62 62 63 62 62 61 61 61 60
56 56 56 57 58 59 58 62 61 61 62 57 57 56 56 56 57 57 60 60 60 61 61 60 58 58 58 60 60 61 60 59 59 60 59 59 58 58 57 56 57 57 58 59 59 57 57 58 57 58 58 59 60 61 61 62 62 61 61 61 61 60 60 61 61 61 62 62 62 62 61 60 60 60
55 56 57 58 58 59 58 62 61 61 61 57 56 55 53 54 55 56 57 60 61 62 61 59 60 60 59 60 59 59 60 61 60 59 58 57 57 57 55 56 56 56 57 58 59 57 56 57 57 58 60 60 60 61 61 62 62 61 61 61 61 61 60 60 60 60 61 61 62 62 61 60 60 60
54 56 59 59 57 57 57 61 61 61 61 57 55 53 52 52 54 55 57 57 58 60 60 60 60 60 60 60 60 61 61 61 61 60 58 57 58 57 57 55 56 56 58 59 60 58 57 58 59 58 59 61 60 62 61 63 63 61 61 62 62 62 61 60 60 59 60 60 60 61 61 60 59 61
55 55 57 58 58 57 58 59 60 60 60 56 53 52 52 53 53 54 56 56 56 56 56 57 57 59 59 60 59 60 61 61 61 61 60 59 59 57 57 57 57 56 57 59 62 58 58 58 58 58 57 56 58 60 62 62 60 61 63 63 63 61 61 60 60 59 59 59 59 59 59 59 59 62
53 53 54 58 58 59 59 58 56 55 55 53 52 52 52 53 53 55 55 59 58 57 58 57 57 58 58 58 58 58 58 59 61 61 61 60 59 58 58 58 58 57 57 61 63 61 61 59 58 59 58 57 57 59 60 59 60 62 63 62 61 62 61 60 59 58 59 59 58 57 57 58 59 62
52 52 53 54 57 57 55 54 52 51 52 55 54 54 53 54 57 58 57 58 59 58 58 59 59 58 58 58 58 58 58 59 59 61 60 61 60 59 59 58 58 58 59 61 64 61 59 59 58 57 57 59 59 58 59 59 60 61 62 61 61 61 60 60 60 61 58 58 58 57 55 56 57 60
52 52 53 54 56 55 53 51 50 50 52 55 58 57 55 55 56 57 59 58 58 58 58 57 58 58 58 58 58 58 59 60 61 60 60 60 60 60 60 59 58 58 58 61 63 61 60 58 58 58 57 57 58 59 59 59 60 60 61 60 60 60 60 60 60 60 61 61 63 62 62 58 57 57
52 53 53 54 55 52 49 49 50 52 54 59 56 54 55 56 58 60 59 60 59 58 58 58 58 58 58 58 58 59 59 60 60 60 61 61 61 62 62 62 61 60 60 60 62 63 61 59 60 59 58 58 59 59 59 58 58 60 59 59 60 60 60 59 60 61 61 62 63 60 59 60 58 57
53 53 51 53 51 49 48 49 52 54 57 56 53 54 56 59 60 60 61 59 59 59 59 59 58 58 58 58 59 59 60 61 61 61 61 61 62 62 62 62 63 63 62 61 61 61 62 61 60 61 60 60 59 58 57 59 60 59 59 59 60 60 60 60 60 61 62 61 61 62 62 63 62 59
53 52 50 49 50 51 51 53 55 56 58 55 56 56 58 60 56 58 58 58 59 57 57 58 58 58 59 59 59 60 60 61 61 61 61 62 62 62 62 62 62 63 63 64 64 64 62 61 60 60 60 60 59 59 59 58 58 58 58 59 58 58 60 60 60 60 62 61 61 61 62 63 63 62
52 51 52 52 53 55 56 59 57 57 58 59 59 58 59 57 56 56 56 56 56 55 56 57 58 58 58 58 59 60 61 60 60 60 60 60 60 61 61 61 61 62 63 63 63 63 63 62 61 61 60 60 60 59 59 58 58 59 59 58 59 60 61 60 59 59 61 61 61 62 62 63 64 62
50 52 55 55 54 54 56 57 57 57 58 59 58 57 57 58 57 57 56 56 54 56 55 56 57 57 58 59 59 58 58 58 59 59 60 59 59 60 60 60 60 60 61 63 63 63 63 63 62 61 60 60 60 60 60 59 59 59 59 59 60 57 58 59 60 60 60 61 61 61 62 63 63 65
51 52 56 56 57 56 56 56 57 56 57 58 58 56 55 55 57 56 56 56 56 55 55 56 57 57 56 55 56 57 57 57 58 59 59 59 59 60 59 58 58 59 59 61 62 64 65 63 63 62 62 60 59 60 61 61 60 59 59 59 60 60 60 60 59 60 61 61 61 60 62 62 61 61
51 52 54 54 55 54 55 54 54 54 55 56 56 56 55 55 54 54 54 55 55 54 55 56 56 56 55 55 56 56 55 56 56 57 57 58 57 58 57 57 57 57 58 59 61 61 62 62 62 57 54 53 54 55 57 59 60 60 59 59 59 59 60 59 60 61 61 60 59 59 60 58 58 58
49 52 53 53 52 52 52 52 53 53 54 55 55 55 55 54 53 54 54 54 54 54 55 55 55 54 55 54 55 55 54 54 55 55 56 55 56 56 55 54 55 56 58 59 59 60 61 60 57 56 54 53 51 51 52 53 53 52 53 56 58 59 60 61 60 61 61 61 60 59 59 56 56 55
52 53 53 52 52 52 52 53 53 54 54 55 55 54 54 53 53 53 53 53 54 54 54 54 54 54 54 54 54 53 53 53 54 54 55 55 55 54 54 53 55 56 57 58 58 60 61 61 58 55 55 55 53 51 50 50 49 49 50 53 54 54 56 59 61 61 61 61 60 60 56 54 53 54
52 52 52 52 52 52 52 53 54 54 54 55 54 53 53 52 53 52 52 52 53 53 53 53 53 53 53 53 53 53 53 53 53 53 53 54 54 54 54 54 56 57 57 57 57 58 60 59 59 58 57 56 56 52 49 50 50 49 48 49 51 53 56 58 60 62 61 61 61 59 53 50 50 51
52 52 52 52 52 51 52 52 53 53 54 54 53 52 52 52 52 52 52 53 53 53 53 52 52 52 52 52 52 52 52 52 52 52 52 53 54 55 54 54 55 56 56 57 58 59 59 59 59 59 58 56 56 54 50 52 51 50 49 48 50 53 56 57 60 59 57 56 54 53 52 50 49 50
53 53 52 52 51 51 52 53 54 53 53 54 53 53 52 52 52 52 52 52 53 53 52 52 52 52 52 53 52 52 52 52 52 52 53 53 54 54 54 54 55 56 56 57 59 59 59 59 59 59 58 57 55 52 50 49 48 49 50 49 49 51 52 55 58 55 54 54 52 52 51 50 49 50
53 53 52 51 51 50 51 52 53 53 54 53 53 53 52 52 52 52 52 52 52 52 52 52 52 53 53 52 52 52 52 51 52 52 53 53 54 54 54 55 55 56 56 57 57 57 59 59 59 59 59 58 55 52 49 47 47 49 50 50 49 48 49 52 56 55 53 51 51 52 52 52 52 50
54 53 52 51 50 50 50 51 51 53 54 53 52 52 53 52 53 52 52 52 52 52 52 52 53 53 53 53 52 52 52 52 53 53 52 52 53 54 54 55 56 56 56 56 57 57 57 58 59 56 54 52 51 51 51 50 50 51 50 50 50 49 48 50 53 54 54 54 53 51 50 50 48 48
54 52 51 50 49 50 50 50 50 53 52 52 52 52 52 53 53 52 52 52 53 52 52 52 52 53 53 53 53 53 52 52 52 53 54 53 54 53 54 54 55 55 55 55 56 56 57 58 58 55 53 52 52 53 52 48 47 47 48 49 50 50 49 48 48 49 53 54 52 50 48 47 46 46
53 52 50 50 50 50 50 49 49 52 51 51 51 52 52 53 52 53 52 53 52 52 52 52 52 53 53 54 54 54 53 52 52 52 53 54 54 53 54 54 54 55 55 54 55 56 57 57 57 55 55 55 54 50 48 48 47 47 48 49 50 49 50 49 48 47 48 50 51 48 48 48 48 45
54 51 50 51 50 51 50 49 49 50 51 51 52 52 53 52 51 51 51 51 51 52 52 52 52 53 53 54 55 55 54 53 53 53 53 53 54 54 54 54 54 55 55 56 57 57 55 56 57 56 54 52 52 51 48 48 48 48 48 48 48 49 49 49 49 49 48 47 47 49 52 53 50 44
53 51 50 50 50 50 50 49 49 50 51 51 53 53 53 52 51 52 52 51 51 51 52 52 52 53 53 55 57 57 55 54 54 54 54 54 55 55 54 54 55 56 56 55 55 56 55 54 54 53 51 50 50 49 48 48 47 48 47 48 48 48 47 48 48 49 49 49 49 48 47 45 45 45
53 51 50 50 50 51 51 49 49 49 50 52 52 52 53 52 52 52 52 52 52 51 52 52 52 53 54 56 57 57 57 57 56 55 55 55 55 55 55 56 56 55 54 54 52 52 52 52 52 52 50 51 51 50 50 50 48 48 48 47 47 47 47 47 46 46 47 48 49 49 49 48 47 47